Tracking 30970 objects as of 3-Jul-2025
HD Live streaming from Space Station
objects crossing your sky now

COSMOS 1275 DEB

Track COSMOS 1275 DEB now!
10-day predictions


NORAD ID: 39947
Int'l Code: 1981-053NP
Perigee: 925.9 km
Apogee: 1,101.9 km
Inclination: 83.0 °
Period: 105.3 minutes
Semi major axis: 7384 km
RCS: 0.0065 m2 (small)
Launch date: April 25, 1981
Source: Commonwealth of Independent States (former USSR) (CIS)
Launch site: PLESETSK MISSILE AND SPACE COMPLEX (PKMTR)

Note: This is SATELLITE DEBRIS
Your satellite tracking list
SL-14 DEB
Track 1 satellite(s)




NASA's NSSDC Master Catalog

Two Line Element Set (TLE):
1 39947U 81053NH  25179.58370779  .00000300  00000-0  31810-3 0  9998
2 39947  83.0133 228.2265 0119153 135.3581  17.0392 13.67999128549785
Source of the keplerian elements: AFSPC